Tracking 25723 objects as of 27-Jun-2022
HD Live streaming from Space Station
objects crossing your sky now

DMSP 5D-2 F13 DEB

Track DMSP 5D-2 F13 DEB now!
10-day predictions


NORAD ID: 42265
Int'l Code: 1995-015GF
Perigee: 825.3 km
Apogee: 830.1 km
Inclination: 98.8 °
Period: 101.3 minutes
Semi major axis: 7198 km
RCS: Unknown
Launch date: March 24, 1995
Source: United States (US)
Launch site: AIR FORCE WESTERN TEST RANGE (AFWTR)

Note: This is SATELLITE DEBRIS
aabbcc
Your satellite tracking list
Your tracking list is empty




NASA's NSSDC Master Catalog

Two Line Element Set (TLE):
1 42265U 95015GF  22176.81411490  .00001641  00000-0  77137-3 0  9995
2 42265  98.7722 192.0319 0003313 300.0356  60.0492 14.21417781341137
Source of the keplerian elements: AFSPC